Regional Weather Roundup
Issued by NWS

Home | Current Version | Previous Version | Text Only | Print | Product List | Glossary Off
Versions: 1 2 3 4 5 6 7 8 9 10 11 12 13 14 15 16 17 18 19 20 21 22 23 24 25 26 27 28 29 30 31 32 33 34 35 36 37 38 39 40 41 42 43 44 45 46 47 48 49 50

939
ASUS43 KDMX 180006
RWRIA

WEATHER ROUNDUP FOR IOWA
NATIONAL WEATHER SERVICE DES MOINES IA
700 PM CDT THU AUG 17 2017

NOTE: "FAIR" INDICATES FEW OR NO CLOUDS BELOW 12,000 FEET WITH NO
SIGNIFICANT WEATHER AND/OR OBSTRUCTIONS TO VISIBILITY.

* - THESE STATIONS ARE NOT NWS STATIONS...THUS NOT UNDER NWS
QUALITY CONTROL.  THEY ALSO DO NOT REPORT WEATHER SUCH
AS PRECIPITATION OR FOG.

IAZ001>003-012>014-020>022-031>034-043>046-180100-
   NORTHWEST IOWA

CITY           SKY/WX    TMP DP  RH WIND       PRES   REMARKS
CARROLL *      SUNNY     77  63  61 NW10      29.89R
CHEROKEE *     SUNNY     78  60  53 NW5       29.89S
DENISON *      SUNNY     77  61  57 VRB7      29.92S
LE MARS *      SUNNY     77  63  61 NW5       29.90R
ORANGE CITY *  SUNNY     77  64  65 W6        29.90S
SHELDON *      SUNNY     75  63  64 NW5       29.88S
SIOUX CITY     SUNNY     80  62  54 W6        29.90R HX  81
6HR MIN TEMP:  77; 6HR MAX TEMP:  82;

SPENCER        SUNNY     77  63  61 NW10      29.88R
6HR MIN TEMP:  73; 6HR MAX TEMP:  81;

STORM LAKE *   SUNNY     73  61  64 MISG      29.90R
$$

IAZ055>058-069>071-079>083-090>094-180100-
   SOUTHWEST IOWA

CITY           SKY/WX    TMP DP  RH WIND       PRES   REMARKS
ATLANTIC *     SUNNY     77  63  61 W6        29.90S
AUDUBON *      SUNNY     77  61  57 NW5       29.91S
CLARINDA *     SUNNY     79  61  53 W6G12     29.93S HX  80
COUNCIL BLFS * SUNNY     79  61  53 NW7G15    29.92S HX  80
CRESTON *      SUNNY     79  59  50 NW13      29.92R HX  80
HARLAN  *      SUNNY     77  63  61 NW6       29.94S
LAMONI         SUNNY     80  59  48 NW10      29.89S HX  81
6HR MIN TEMP:  79; 6HR MAX TEMP:  83;

RED OAK *      SUNNY     79  63  57 NW6       29.91S HX  80
SHENANDOAH *   SUNNY     79  64  61 W5        29.92S HX  81
$$

IAZ047>049-059>061-072>074-084-180100-
   CENTRAL IOWA

CITY           SKY/WX    TMP DP  RH WIND       PRES   REMARKS
AMES           SUNNY     76  64  66 W9        29.85S
6HR MIN TEMP:  73; 6HR MAX TEMP:  79;

ANKENY *       SUNNY     79  61  53 NW12G21   29.87R HX  80
BOONE *        SUNNY     77  63  61 W12G18    29.86S
CHARITON *     SUNNY     79  57  47 NW14      29.87R HX  80
DES MOINES     MOSUNNY   81  59  47 NW17      29.86R HX  81
6HR MIN TEMP:  78; 6HR MAX TEMP:  84;

GRINNELL*      MOSUNNY   74  64  70 NW10      29.87R
KNOXVILLE *    MOSUNNY   79  59  50 W15       29.85R HX  80
MARSHALLTOWN   MOSUNNY   74  65  73 W8        29.84S
6HR MIN TEMP:  73; 6HR MAX TEMP:  77;

NEWTON *       PTSUNNY   75  64  69 NW9       29.86R
PELLA *        MOSUNNY   79  62  54 NW8G16    29.86R HX  81
PERRY *          N/A     78  62  59 W8        29.88R
$$

IAZ004>006-015-016-023>025-035-036-180100-
   NORTH CENTRAL IOWA

CITY           SKY/WX    TMP DP  RH WIND       PRES   REMARKS
ALGONA *       SUNNY     75  63  64 NW10      29.86S
CLARION *      SUNNY     75  66  73 NW9G17    29.85S
ESTHERVILLE    SUNNY     73  63  70 N9        29.86R
6HR MIN TEMP:  68; 6HR MAX TEMP:  76;

FORT DODGE *   MOSUNNY   75  63  64 W8        29.87S
MASON CITY     PTSUNNY   71  61  70 NW12      29.86R
6HR MIN TEMP:  71; 6HR MAX TEMP:  76;

FOREST CITY *  CLOUDY    72  63  73 NW10G17   29.86R
WEBSTER CITY * PTSUNNY   77  64  65 NW10      29.84S
IOWA FALLS *     N/A     75  65  70 W10       29.86S
$$

IAZ007>011-017>019-026>030-037>042-050>054-066-180100-
   NORTHEAST IOWA

CITY           SKY/WX    TMP DP  RH WIND       PRES   REMARKS
CEDAR RAPIDS   CLOUDY    74  64  71 W14G23    29.82R
6HR MIN TEMP:  74; 6HR MAX TEMP:  78;

CHARLES CITY * PTSUNNY   72  64  78 W10G17    29.82S
CLINTON *      CLOUDY    75  66  73 W15       29.79R
DECORAH *      CLOUDY    72  64  78 W9G17     29.77S
DUBUQUE        CLOUDY    72  63  73 W13       29.79R
6HR MIN TEMP:  72; 6HR MAX TEMP:  76;

MONTICELLO *   CLOUDY    73  64  73 W9G18     29.79S
OELWEIN *      PTSUNNY   73  64  73 W14G24    29.82R
WATERLOO       SUNNY     73  61  65 W10G22    29.81R
6HR MIN TEMP:  73; 6HR MAX TEMP:  79;

$$

IAZ064-065-067-068-078-180100-
   EAST CENTRAL IOWA

CITY           SKY/WX    TMP DP  RH WIND       PRES   REMARKS
DAVENPORT      CLOUDY    76  64  66 W15G22    29.82R
6HR MIN TEMP:  76; 6HR MAX TEMP:  81;

IOWA CITY      CLOUDY    79  65  62 W10       29.83R HX  81
6HR MIN TEMP:  78; 6HR MAX TEMP:  81;

MT. PLEASANT * SUNNY     79  57  46 NW13G20   29.83R HX  80
MUSCATINE *    PTSUNNY   77  64  65 W15       29.81S
QUAD CITIES    MOCLDY    78  63  59 W16       29.80R HX  80
6HR MIN TEMP:  78; 6HR MAX TEMP:  84;

$$

IAZ062-063-075>077-085>089-095>099-180100-
   SOUTHEAST IOWA

CITY           SKY/WX    TMP DP  RH WIND       PRES   REMARKS
BURLINGTON     SUNNY     80  63  55 NW7       29.82R HX  81
6HR MIN TEMP:  80; 6HR MAX TEMP:  84;

FAIRFIELD *    SUNNY     79  59  50 NW12      29.83S HX  80
FORT MADISON * MOSUNNY   81  63  54 W7        29.83S HX  82
KEOKUK *       SUNNY     82  61  47 W7        29.82S HX  83
OSKALOOSA *      N/A     78  63  58 NW8       29.85S HX  80
CENTERVILLE *    N/A     77  59  53 W10       29.88S
OTTUMWA        MOSUNNY   81  60  48 NW15      29.83S HX  82
6HR MIN TEMP:  77; 6HR MAX TEMP:  85;

WASHINGTON *   PTSUNNY   77  64  65 W9G15     29.84R
$$

ABBREVIATIONS USED IN REMARKS
   TC - TEMPERATURES IN CELSIUS
  WCI - WIND CHILL INDEX
   HX - HEAT INDEX
  VSB - VISIBILITY
$$





USA.gov is the U.S. government's official web portal to all federal, state and local government web resources and services.